Weather History for KBIF - June, 2014

Change the Weather History Date:

Sunday, June 8, 2014

  Actual Average Record
Temperature  
Mean Temperature 84 °F -  
Max Temperature 97 °F - - ()
Min Temperature 71 °F - - ()
Cooling Degree Days 18    
Growing Degree Days 34 (Base 50)    
Moisture  
Dew Point 35 °F    
Average Humidity 21    
Maximum Humidity 52    
Minimum Humidity 7    
Precipitation  
Precipitation 0.00 in - - ()
Sea Level Pressure  
Sea Level Pressure 29.67 in    
Wind  
Wind Speed 7 mph (West)    
Max Wind Speed 18 mph    
Max Gust Speed 26 mph    
Visibility 11 miles    
Events      
T = Trace of Precipitation, MM = Missing Value Source: NWS Daily Summary

Daily Weather History Graph

Daily Weather History Graph

Search for Another Location

Airport or City:

Trip Planner

Search our weather history database for the weather conditions in past years. The results will help you decide how hot, cold, wet, or windy it might be!

Date:

Astronomy

Jun. 08, 2014 Rise Set
Actual Time 5:59 AM MDT 8:09 PM MDT
Civil Twilight 5:31 AM MDT 8:38 PM MDT
Nautical Twilight 4:57 AM MDT 9:12 PM MDT
Astronomical Twilight 4:20 AM MDT 9:49 PM MDT
Moon 3:45 PM MDT (6/8) 2:37 AM MDT (6/8)
Length of Visible Light 15h 06m
Length of Day
14h 10m
Waxing Gibbous, 77% of the Moon is Illuminated
Jun 8
Waxing Gibbous
Jun 12
Full
Jun 19
Last Quarter
Jun 27
New
Jul 5
First Quarter

Hourly Weather History & Observations

Time (MDT) Temp. Heat Index Dew Point Humidity Pressure Visibility Wind Dir Wind Speed Gust Speed Precip Events Conditions
12:56 AM 90.9 °F - 24.1 °F 9% 29.60 in 12.0 mi SSW 6.9 mph - N/A   Mostly Cloudy
1:56 AM 86.5 °F - 23.0 °F 10% 29.62 in 9.0 mi SSW 3.5 mph - N/A   Mostly Cloudy
2:56 AM 77.2 °F - 18.3 °F 11% 29.62 in 12.0 mi North 6.9 mph - N/A   Partly Cloudy
3:56 AM 76.1 °F - 33.8 °F 21% 29.66 in 11.0 mi North 4.6 mph - N/A   Clear
4:56 AM 75.6 °F - 55.2 °F 49% 29.69 in 9.0 mi NE 5.8 mph - N/A   Clear
5:56 AM 72.1 °F - 52.0 °F 49% 29.71 in 10.0 mi NNE 3.5 mph - N/A   Clear
6:56 AM 71.8 °F - 53.2 °F 52% 29.75 in 9.0 mi North 2.3 mph - N/A   Clear
7:56 AM 75.2 °F - 55.4 °F 50% 29.77 in 11.0 mi North 4.6 mph - N/A   Clear
8:56 AM 77.2 °F - 56.7 °F 49% 29.78 in 11.0 mi SSE 3.5 mph - N/A   Clear
9:56 AM 82.8 °F 82.1 °F 56.5 °F 40% 29.76 in 10.0 mi West 2.3 mph - N/A   Clear
11:56 AM 88.0 °F - 50.7 °F 28% 29.74 in 12.0 mi SW 2.3 mph - N/A   Clear
12:56 PM 90.3 °F - 44.1 °F 20% 29.70 in 12.0 mi South 5.8 mph - N/A   Clear
1:56 PM 93.6 °F - 37.6 °F 14% 29.67 in 12.0 mi West 8.1 mph 16.1 mph N/A   Partly Cloudy
2:56 PM 96.6 °F - 31.5 °F 10% 29.66 in 12.0 mi West 12.7 mph 23.0 mph N/A   Clear
3:56 PM 96.1 °F - 26.8 °F 8% 29.63 in 12.0 mi West 5.8 mph 20.7 mph N/A   Clear
4:56 PM 96.4 °F - 30.2 °F 10% 29.61 in 12.0 mi WSW 9.2 mph 17.3 mph N/A   Partly Cloudy
5:56 PM 96.6 °F - 30.0 °F 9% 29.59 in 12.0 mi WSW 16.1 mph 23.0 mph N/A   Partly Cloudy
6:56 PM 95.4 °F - 21.2 °F 7% 29.59 in 11.0 mi West 16.1 mph 26.5 mph N/A   Clear
7:56 PM 92.8 °F - 18.5 °F 7% 29.61 in 12.0 mi West 11.5 mph 20.7 mph N/A   Clear
8:56 PM 90.9 °F - 20.1 °F 8% 29.62 in 12.0 mi West 9.2 mph - N/A   Clear
9:56 PM 89.6 °F - 21.7 °F 8% 29.63 in 12.0 mi West 13.8 mph 19.6 mph N/A   Clear
10:56 PM 89.4 °F - 22.6 °F 9% 29.64 in 11.0 mi West 18.4 mph 24.2 mph N/A   Clear
11:56 PM 88.3 °F - 24.1 °F 10% 29.65 in 11.0 mi West 16.1 mph 24.2 mph N/A   Clear